sat.trackr.live / text

‹ back to catalog

STARLINK-36388

NORAD 68037 · 2026-040Y

PAYLOAD ACTIVE UNKNOWN

§ Identity

Operator
Country
US
Launch date
2026-03-01
Launch site
AFWTR
Launch vehicle
Mass (kg)
RCS (m²)

Purposes: comms

External: N2YO · Heavens-Above · Gunter

§ Orbital elements

Epoch: 2026-09-19T16:03:51.008832Z

Period
93.90 min
Inclination
97.2849°
Eccentricity
0.0001262
Mean motion
15.33473282 rev/d
Perigee alt
464.6 km
Apogee alt
466.3 km
Semi-major
6,843.6 km
B*
8.2266e-4
RAAN
210.0693°
Arg perigee
102.9934°
Mean anomaly
257.1450°
Rev number
3,119

§ Raw data

STARLINK-363881 68037U 26040Y   26262.66934038  .00026601  00000+0  82266-3 0  99942 68037  97.2849 210.0693 0001262 102.9934 257.1450 15.33473282 31191

JSON: /api/v1/satellites/68037 · /tle

For live sub-satellite position, see the globe view (requires WebGL).

§ Visibility from observer

Set your observer location to see the next 7 days of passes ≥ 10°. The values pass through the URL so the page stays shareable.

No JS? Fill the form by hand. The geolocation button needs JavaScript.